Flag for Poland Weather past 2 weeks in Kalisz, Poland

Now
56 °F

Overcast.


Feels Like: 56 °F
Forecast: 47 / 60 °F
Wind: 3 mph from West

Location: Kalisz

Current Time: May 26, 2015 at 3:54:42 AM

Latest Report: May 26, 2015 at 3:00 AM


Visibility: 9 mi

Pressure: 29.80 "Hg

Humidity: 81%

Dew point: 50 °F

Location of KaliszLocation

Historic Weather in Kalisz — Graph

°F

Kalisz temperature yesterday

Maximum temperature yesterday: 69 °F (at 5:00 PM)
Minimum temperature yesterday: 56 °F (at 6:00 AM)
Average temperature yesterday: 63 °F

Past Weeks' High & Low Weather Summary

 TemperatureHumidityPressure
High74 °F (May 12, 3:00 PM)98% (May 17, 4:00 AM)30.41 "Hg (May 17, 4:00 AM)
Low43 °F (May 11, 6:00 AM)28% (May 11, 7:00 PM)29.69 "Hg (May 19, 9:00 AM)
Average57 °F64%30.03 "Hg
* Reported May 11 2:00 AM — May 26 2:00 AM, Kalisz, Weather by CustomWeather, © 2015

Note: Actual official high and low records may vary slightly from our data, if they occured in-between our weather recording intervals... More about our weather records

Advertising

Kalisz weather history for previous 24 hours

 ConditionsComfort  
Time TempWeatherWind HumidityBarometerVisibility
2:00 AM
Tue, May 26
58 °FOvercast.1 mph80%29.79 "Hg9 mi
1:00 AM59 °FOvercast.2 mph76%29.80 "Hg12 mi
12:00 AM60 °FOvercast.1 mph73%29.81 "Hg12 mi
11:00 PM
Mon, May 25
61 °FOvercast.2 mph71%29.83 "Hg14 mi
10:00 PM61 °FOvercast.2 mph70%29.83 "Hg16 mi
9:00 PM65 °FOvercast.1 mph62%29.82 "Hg19 mi
8:00 PM67 °FPartly sunny.1 mph52%29.82 "Hg19 mi
7:00 PM69 °FOvercast.2 mph47%29.83 "Hg19 mi
6:00 PM69 °FOvercast.2 mph47%29.82 "Hg14 mi
5:00 PM69 °FOvercast.2 mph47%29.84 "Hg12 mi
4:00 PM69 °FOvercast.2 mph49%29.86 "Hg14 mi
3:00 PM69 °FOvercast.2 mph47%29.87 "Hg17 mi
2:00 PM67 °FOvercast.1 mph55%29.90 "Hg12 mi
1:00 PM66 °FOvercast.2 mph59%29.92 "Hg11 mi
12:00 PM65 °FOvercast.2 mph62%29.94 "Hg14 mi
11:00 AM65 °FOvercast.1 mph59%29.95 "Hg10 mi
10:00 AM65 °FOvercast.2 mph62%29.96 "Hg8 mi
9:00 AM63 °FOvercast.1 mph67%29.97 "Hg7 mi
8:00 AM59 °FFog.1 mph78%29.98 "Hg5 mi
7:00 AM57 °FFog.1 mph85%29.99 "Hg4 mi
6:00 AM56 °FFog.1 mph86%29.99 "Hg3 mi
4:00 AM56 °FFog.2 mph86%30.01 "Hg5 mi
3:00 AM57 °FOvercast.No wind83%30.01 "Hg6 mi
Weather by CustomWeather, © 2015

See weather overviewHow to use our weather pages